Holloman AFB, NM

1:38 AM MDT on March 30, 2017 (GMT -0600)
Holloman Air Force Base

Weather History for KHMN - September, 2013

Change the Weather History Date:

Friday, September 27, 2013

  Actual Average Record
Temperature  
Mean Temperature 74 °F -  
Max Temperature 84 °F 82 °F 95 °F (2005)
Min Temperature 61 °F 54 °F 50 °F (2000)
Cooling Degree Days 8    
Growing Degree Days 24 (Base 50)    
Moisture  
Dew Point 49 °F    
Average Humidity 40    
Maximum Humidity 55    
Minimum Humidity 23    
Precipitation  
Precipitation 0.00 in - - ()
Sea Level Pressure  
Sea Level Pressure 29.73 in    
Wind  
Wind Speed 12 mph (SSW)    
Max Wind Speed 26 mph    
Max Gust Speed 33 mph    
Visibility 10 miles    
Events      
Averages and records for this station are not official NWS values.
T = Trace of Precipitation, MM = Missing Value Source: NWS Daily Summary

Daily Weather History Graph

Daily Weather History Graph

Search for Another Location

Airport or City:

Trip Planner

Search our weather history database for the weather conditions in past years. The results will help you decide how hot, cold, wet, or windy it might be!

Date:

Astronomy

Sep. 27, 2013 Rise Set
Actual Time 6:56 AM MDT 6:53 PM MDT
Civil Twilight 6:31 AM MDT 7:18 PM MDT
Nautical Twilight 6:02 AM MDT 7:47 PM MDT
Astronomical Twilight 5:33 AM MDT 8:15 PM MDT
Moon 12:11 AM MDT (9/27) 2:17 PM MDT (9/27)
Length of Visible Light 12h 47m
Length of Day
11h 57m
Last Quarter, 44% of the Moon is Illuminated
Sep 27
Last Quarter
Oct 4
New
Oct 11
First Quarter
Oct 18
Full
Oct 26
Last Quarter

Hourly Weather History & Observations

Time (MDT) Temp. Dew Point Humidity Pressure Visibility Wind Dir Wind Speed Gust Speed Precip Events Conditions
12:58 AM 71.6 °F 50.0 °F 46% 29.65 in 10.0 mi SSE 8.1 mph - 0.00 in   Scattered Clouds
1:58 AM 70.7 °F 52.2 °F 52% 29.64 in 10.0 mi SSE 4.6 mph - N/A   Partly Cloudy
2:58 AM 71.4 °F 52.9 °F 52% 29.64 in 10.0 mi SSE 10.4 mph - N/A   Mostly Cloudy
3:58 AM 71.1 °F 54.3 °F 55% 29.64 in 10.0 mi SSE 10.4 mph - N/A   Overcast
4:58 AM 71.6 °F 52.3 °F 51% 29.65 in 10.0 mi SE 9.2 mph - N/A   Partly Cloudy
5:58 AM 70.3 °F 52.9 °F 54% 29.67 in 10.0 mi SSE 9.2 mph - N/A   Mostly Cloudy
6:58 AM 70.0 °F 52.9 °F 55% 29.68 in 10.0 mi South 6.9 mph - N/A   Partly Cloudy
7:58 AM 70.3 °F 53.6 °F 55% 29.70 in 10.0 mi SSE 9.2 mph - N/A   Partly Cloudy
8:58 AM 71.8 °F 53.8 °F 53% 29.69 in 10.0 mi SSE 11.5 mph - N/A   Clear
9:58 AM 75.6 °F 52.5 °F 45% 29.71 in 10.0 mi SSE 10.4 mph - N/A   Clear
10:58 AM 79.0 °F 52.9 °F 40% 29.70 in 10.0 mi SSE 16.1 mph - N/A   Clear
11:08 AM 78.8 °F 53.6 °F 42% 29.89 in 10.0 mi South 12.7 mph 20.7 mph N/A   Clear
11:44 AM 82.4 °F 51.8 °F 35% 29.88 in 10.0 mi SW 15.0 mph 19.6 mph N/A   Clear
11:58 AM 82.9 °F 52.0 °F 34% 29.67 in 10.0 mi SW 12.7 mph 21.9 mph N/A   Clear
11:59 AM 82.4 °F 51.8 °F 35% 29.87 in 10.0 mi South 12.7 mph 21.9 mph N/A   Partly Cloudy
12:13 PM 82.4 °F 51.8 °F 35% 29.87 in 10.0 mi SW 17.3 mph - N/A   Clear
12:58 PM 83.5 °F 49.1 °F 30% 29.65 in 10.0 mi SSW 26.5 mph 33.4 mph N/A   Clear
1:18 PM 84.2 °F 50.0 °F 30% 29.85 in 10.0 mi SW 23.0 mph 31.1 mph N/A   Clear
1:58 PM 83.5 °F 49.5 °F 31% 29.62 in 10.0 mi SSW 19.6 mph 28.8 mph N/A   Clear
2:58 PM 83.3 °F 47.8 °F 29% 29.61 in 10.0 mi SW 16.1 mph 26.5 mph N/A   Clear
3:58 PM 83.8 °F 45.9 °F 26% 29.61 in 10.0 mi SW 18.4 mph 23.0 mph N/A   Clear
4:58 PM 84.7 °F 43.5 °F 23% 29.61 in 10.0 mi WSW 19.6 mph 27.6 mph N/A   Clear
5:58 PM 82.4 °F 41.5 °F 23% 29.62 in 10.0 mi WSW 17.3 mph - N/A   Clear
6:58 PM 76.5 °F 45.0 °F 33% 29.67 in 10.0 mi West 13.8 mph - N/A   Clear
7:58 PM 72.9 °F 43.9 °F 35% 29.70 in 10.0 mi West 11.5 mph - N/A   Clear
8:58 PM 69.8 °F 44.2 °F 40% 29.73 in 10.0 mi WNW 3.5 mph - N/A   Clear
9:58 PM 66.4 °F 41.5 °F 40% 29.78 in 10.0 mi North 15.0 mph - N/A   Clear
10:02 PM 66.2 °F 41.0 °F 40% 29.97 in 10.0 mi ENE 12.7 mph - N/A   Clear
10:03 PM 66.2 °F 41.0 °F 40% 29.97 in 10.0 mi SE 12.7 mph - N/A   Clear
10:58 PM 63.5 °F 41.4 °F 44% 29.81 in 10.0 mi North 11.5 mph - N/A   Clear
11:58 PM 61.2 °F 41.0 °F 47% 29.82 in 10.0 mi North 10.4 mph - N/A   Clear